TIANTONG-1 1 (41725 NORAD) Tracking and Keplerian Element Data

This shows tracking and keplerian element data for the satellite.

Feedback or suggestion? Click here.




ElementValue
Catalog41725
NameTIANTONG-1 1
Epoch Orbit1889
Epoch Day262.1980209
Epoch Year2021
RAAN346.8681
Inclination2.4538
Eccentricity0.0001589
Argument of Perigee225.0561
Mean Anonmoly319.0779
Mean Motion1.00269796
Decay Rate-3.41E-06
L11 41725U 16048A 21262.19802090 -.00000341 00000-0 00000+0 0 9998
L22 41725 2.4538 346.8681 0001589 225.0561 319.0779 1.00269796 18895

Live tracking and technical data element details for TIANTONG-1 1 (NORAD 41725). TIANTONG-1 1 can be tracked NOW for your location showing map with azimuth and elevation plus other details from your city location.

Track the satellite on the map from your city or location and see movement details for azimuth, elevation, latitude, longitude, range, height, and movement on the map or in text.







IsCatalogInMostPopularTable: catalog: 41725, numindb: 876
Update: records affected: 1



GetName: 41725 TIANTONG-1 1

Hit Count: updated at: Fri, 24 Sep 2021 17:29:25 GMT